Cozumel, Mexico

9:04 AM EST on May 25, 2017 (GMT -0500)
Cozumel

Weather History for MMCZ - November, 2013

Change the Weather History Date:

Friday, November 29, 2013

  Actual Average Record
Temperature  
Mean Temperature 72 °F -  
Max Temperature 75 °F 80 °F 87 °F (1998)
Min Temperature 68 °F 70 °F 59 °F (2008)
Cooling Degree Days 6    
Growing Degree Days 22 (Base 50)    
Moisture  
Dew Point 64 °F    
Average Humidity 81    
Maximum Humidity 100    
Minimum Humidity 61    
Precipitation  
Precipitation 2.55 in - - ()
Sea Level Pressure  
Sea Level Pressure 30.15 in    
Wind  
Wind Speed 12 mph ()    
Max Wind Speed 18 mph    
Max Gust Speed 25 mph    
Visibility 7.0 miles    
Events      
Averages and records for this station are not official NWS values.
T = Trace of Precipitation, MM = Missing Value Source: Averaged Metar Reports

Daily Weather History Graph

Daily Weather History Graph

Search for Another Location

Airport or City:

Trip Planner

Search our weather history database for the weather conditions in past years. The results will help you decide how hot, cold, wet, or windy it might be!

Date:

Astronomy

Nov. 29, 2013 Rise Set
Actual Time 6:06 AM CST 5:05 PM CST
Civil Twilight 5:42 AM CST 5:29 PM CST
Nautical Twilight 5:15 AM CST 5:57 PM CST
Astronomical Twilight 4:48 AM CST 6:23 PM CST
Moon 2:36 AM CST (11/29) 2:29 PM CST (11/29)
Length of Visible Light 11h 47m
Length of Day
10h 59m
Waning Crescent, 14% of the Moon is Illuminated
Nov 29
Waning Crescent
Dec 2
New
Dec 9
First Quarter
Dec 17
Full
Dec 25
Last Quarter

Hourly Weather History & Observations

Time (CST) Temp. Dew Point Humidity Pressure Visibility Wind Dir Wind Speed Gust Speed Precip Events Conditions
12:42 AM 69.8 °F 60.8 °F 73% 30.17 in 7.0 mi North 15.0 mph - N/A   Clear
1:46 AM 68.0 °F 62.6 °F 83% 30.15 in 7.0 mi North 16.1 mph - N/A   Clear
2:42 AM 68.0 °F 62.6 °F 83% 30.18 in 7.0 mi North 15.0 mph - N/A   Clear
3:42 AM 68.0 °F 62.6 °F 83% 30.15 in 7.0 mi NNE 13.8 mph - N/A   Clear
4:47 AM 68.0 °F 62.6 °F 83% 29.96 in 7.0 mi NNE 10.4 mph - N/A   Clear
5:40 AM 69.8 °F 62.6 °F 78% 30.14 in 7.0 mi North 15.0 mph - N/A   Clear
6:42 AM 69.8 °F 60.8 °F 73% 30.18 in 7.0 mi NNE 11.5 mph - N/A   Clear
7:40 AM 69.8 °F 60.8 °F 73% 30.18 in 7.0 mi NNE 10.4 mph 21.9 mph N/A   Clear
8:40 AM 73.4 °F 69.8 °F 88% 30.24 in 7.0 mi North 17.3 mph - N/A   Clear
9:40 AM 73.4 °F 59.0 °F 61% 30.21 in 7.0 mi North 17.3 mph - N/A   Clear
10:40 AM 75.2 °F 60.8 °F 61% 30.20 in 7.0 mi NNE 9.2 mph 20.7 mph N/A   Partly Cloudy
11:40 AM 75.2 °F 60.8 °F 61% 30.16 in 7.0 mi North 16.1 mph - N/A   Mostly Cloudy
12:40 PM 75.2 °F 62.6 °F 65% 30.15 in 7.0 mi North 16.1 mph - N/A   Scattered Clouds
1:40 PM 73.4 °F 62.6 °F 69% 30.13 in 7.0 mi North 11.5 mph 23.0 mph N/A   Mostly Cloudy
2:49 PM 71.6 °F 64.4 °F 78% 30.14 in 7.0 mi North 11.5 mph 23.0 mph N/A   Overcast
3:49 PM 71.6 °F 64.4 °F 78% 30.11 in 7.0 mi North 17.3 mph - N/A   Mostly Cloudy
4:41 PM 69.8 °F 64.4 °F 83% 30.11 in 7.0 mi North 11.5 mph 25.3 mph N/A   Scattered Clouds
5:42 PM 69.8 °F 66.2 °F 88% 30.11 in 7.0 mi NNW 17.3 mph - N/A   Scattered Clouds
6:43 PM 69.8 °F 66.2 °F 88% 30.12 in 7.0 mi North 18.4 mph - N/A   Scattered Clouds
7:45 PM 68.0 °F 66.2 °F 94% 30.15 in 7.0 mi West 15.0 mph - N/A   Mostly Cloudy
8:44 PM 69.8 °F 69.8 °F 100% 30.18 in 7.0 mi North 6.9 mph - N/A   Mostly Cloudy
9:45 PM 69.8 °F 69.8 °F 100% 30.15 in 7.0 mi North 5.8 mph - N/A   Mostly Cloudy
10:47 PM 68.0 °F 66.2 °F 94% 30.14 in 7.0 mi ESE 4.6 mph - N/A   Mostly Cloudy
11:50 PM 68.0 °F 68.0 °F 100% 30.10 in 7.0 mi ENE 6.9 mph - N/A   Mostly Cloudy